Location: Newark
(39.4242°N, 80.8531°W)
Time: 19:16:01
(UTC+00:00)

ISS - Visible Passes

Search period start: 27 January 2020 00:00
Search period end: 06 February 2020 00:00
Orbit: 416 x 423 km, 51.6° (Epoch: 28 January)

Date Brightness Start Highest point End Pass type
(mag) Time Alt. Az. Time Alt. Az. Time Alt. Az.
28 Jan -0.9 00:30:58 10° NNW 00:31:11 10° NNW 00:31:11 10° NNW visible
28 Jan -1.2 23:42:46 10° NNW 23:43:56 11° N 23:45:06 10° NNE visible
30 Jan -0.9 00:32:58 10° NNW 00:33:01 10° NNW 00:33:01 10° NNW visible
30 Jan -1.2 23:45:31 10° N 23:46:18 11° N 23:47:05 10° NNE visible
01 Feb -1.1 00:34:14 10° NNW 00:34:53 12° NNW 00:34:53 12° NNW visible
01 Feb -1.5 23:46:55 10° NNW 23:48:35 13° NNE 23:49:23 12° NNE visible
03 Feb -1.6 00:35:28 10° NNW 00:36:54 19° NNW 00:36:54 19° NNW visible
03 Feb -2.1 23:48:06 10° NNW 23:50:42 20° NNE 23:51:32 18° NE visible
04 Feb -0.3 01:24:26 10° WNW 01:24:31 11° WNW 01:24:31 11° WNW visible
05 Feb -2.8 00:36:51 10° NW 00:39:16 42° NNW 00:39:16 42° NNW visible
05 Feb -3.2 23:49:21 10° NW 23:52:35 41° NNE 23:54:09 24° E visible
